Regional Weather Roundup
Issued by NWS

Home | Current Version | Previous Version | Text Only | Print | Product List | Glossary Off
Versions: 1 2 3 4 5 6 7 8 9 10 11 12 13 14 15 16 17 18 19 20 21 22 23 24 25 26 27

000
ASUS45 KSLC 230210
RWRUT

UTAH REGIONAL WEATHER ROUNDUP
NATIONAL WEATHER SERVICE SALT LAKE CITY UT
800 PM MDT THU JUN 22 2017

UTZ001>011-023>025-230300-

NORTHERN UTAH

CITY           SKY/WX    TMP DP  RH WIND       PRES   REMARKS
BRIGHAM CITY   SUNNY     82  20  10 N12       30.01S
HILL AFB       CLEAR     79  36  21 W5        30.04S
LOGAN          SUNNY     77  41  27 N10       30.03R
OGDEN          CLEAR     80  36  20 W6        30.01S
SALT LAKE CITY CLEAR     85  31  14 NW8       30.00S
TOOELE VALLEY  CLEAR     79  36  21 NE3       30.02S
WENDOVER         N/A     87  25  10 N18       29.99R
HEBER CITY     CLEAR     77  27  15 NW9       30.06R
WEST JORDAN    CLEAR     80  46  29 NW8       30.05R

$$

UTZ011>015-024>027-230300-

CENTRAL/NORTHEAST UTAH

CITY           SKY/WX    TMP DP  RH WIND       PRES   REMARKS
PROVO AIRPORT  CLEAR     81  28  15 N18G25    30.02R
MOAB/CANYONLAN CLEAR     96  31  10 NW22G29   29.83R HX  90
DELTA          CLEAR     86  21   9 N17G23    29.99S
PRICE          CLEAR     83  34  17 NW12      30.03R
ROOSEVELT      CLEAR     84  28  13 W22G28    29.95R
VERNAL         CLEAR     87  29  12 N16G23    29.91R

$$

UTZ013>016-019>022-027-230300-

SOUTHERN UTAH

CITY           SKY/WX    TMP DP  RH WIND       PRES   REMARKS
BRYCE CANYON   NOT AVBL
CEDAR CITY     CLEAR     90  34  13 NE6       30.01S
MILFORD        CLEAR     91  31  11 NE13      29.97S
ST GEORGE      CLEAR    106  23   5 W13G21    29.73S HX  98
HANKSVILLE     CLEAR     95  30  10 NW21G28   29.88R
BLANDING       MOCLDY    85  32  14 N14       30.03R

$$

REGIONAL REPORTS     COLORADO/ARIZONA

CITY           SKY/WX    TMP DP  RH WIND       PRES   REMARKS
CRAIG, CO      CLOUDY    82  23  11 NW16G25   30.00R
GRAND JUNCTION CLOUDY    90  36  14 CALM      29.85S
RIFLE, CO      CLOUDY    85  35  16 CALM      29.93S
MONTROSE, CO   CLOUDY    86  34  15 NW7       29.96S
CORTEZ, CO     CLOUDY    85  20   9 SW7       29.95R
COLORADO CITY    N/A     97  27   8 W10G18    29.96S HX  90
PAGE, AZ       CLEAR    101  12   4 NW12G21   29.84R HX  93
GRAND CANYON   CLEAR     88  16   7 W8        30.12R
KINGMAN, AZ    CLEAR    101  34   9 SW14G24   29.85S HX  95
FLAGSTAFF, AZ  CLEAR     84  25  11 W8        30.15R

$$

REGIONAL REPORTS    NEVADA/IDAHO/WYOMING

CITY           SKY/WX    TMP DP  RH WIND       PRES   REMARKS
LAS VEGAS, NV  MOSUNNY  110   6   2 SW18G26   29.68S HX 100
ELY, NY        SUNNY     84  29  13 NW18G25   30.12R
ELKO, NV       SUNNY     82  23  11 NW13      30.09R
POCATELLO, ID  MOSUNNY   74  32  21 SW20      30.06S
BURLEY, ID     SUNNY     72  28  19 W14       30.04S
FORT BRIDGER,    N/A     73  28  18 NW18      30.20R
EVANSTON, WY   CLEAR     69  39  33 NW12      30.19R
ROCK SPRINGS,  CLEAR     73  23  15 W22G32    30.09R
KEMMERER, WY     N/A     66  32  28 NW14G24   30.18S

$$




USA.gov is the U.S. government's official web portal to all federal, state and local government web resources and services.